Location: North Evanston
(42.0634°N, 87.6976°W)
Time: 20:48:36
(UTC+00:00)

Vanguard 3 - Pass Details

Date: 11 May 2026
Orbit: 507 x 3205 km, 33.4° (Epoch: 31 May)

Event Time Altitude Azimuth Distance (km) Brightness Sun altitude
Rises 03:51:52 0° 273° (W) 5,603 11.9 -24.4°
Reaches altitude 10° 04:00:38 10° 239° (WSW) 3,660 10.4 -25.2°
Maximum altitude 04:01:43 10° 232° (SW) 3,517 10.3 -25.3°
Drops below altitude 10° 04:02:44 10° 225° (SW) 3,417 10.2 -25.4°
Enters shadow 04:03:49 - 218° (SW) 3,353 10.0 -25.5°
Sets 04:08:43 0° 184° (S) 3,669 - -25.9°
